Date String (YYYY-MM-DD hh:mm:ss) UTC,Instrument flags,absolute air pressure of the measurement (hPa),sample flow rate (lpm),inlet stack bypass flow (lpm),air temperature of the measurement (°C),ambient temperature measured by the external sensor (°C),aerosol sample conditioner tube jacket temperature (°C),OPC LED temperature (°C),internal box temperature (°C),relative humidity of the measurement (%),span deviation,mass concentration of particles derived from Lorenz-Mie calculation of OPC scattering (μg/m³),mass concentration of particles derived from Lorenz-Mie calculation of OPC scattering (μg/m³),mass concentration of particles derived from Lorenz-Mie calculation of OPC scattering (μg/m³)
DateTimeUTC,F1_M11,P_M11,Q1_M11,Q2_M11,T1_M11,T2_M11,T3_M11,T4_M11,T5_M11,U1_M11,ZSPAN_M11,X0_M11,X2_M11,X1_M11
2023-07-30 03:00:00,SystemResetWarning,0837.0,4.99,000.00,033.2,027.4,000.0,040.5,032.0,34.1,0000.0,0023.59,0007.73,0005.95
2023-07-30 03:01:00,SystemResetWarning,0837.0,5.03,000.00,033.3,027.6,000.0,040.5,032.1,33.8,0000.0,0023.00,0007.74,0005.97
2023-07-30 03:02:00,SystemResetWarning,0836.9,5.00,000.00,033.3,027.9,000.0,040.6,032.1,34.0,0000.0,0024.17,0007.78,0005.99
2023-07-30 03:03:00,SystemResetWarning,0837.0,5.00,000.00,033.3,028.1,000.0,040.6,032.1,34.1,0000.0,0023.52,0007.75,0005.98
2023-07-30 03:04:00,SystemResetWarning,0836.9,4.98,000.00,033.3,027.4,000.0,040.6,032.1,34.2,0000.0,0023.40,0007.76,0005.97
2023-07-30 03:05:00,SystemResetWarning,0836.9,5.00,000.00,033.3,025.9,000.0,040.5,031.8,34.1,0000.0,0022.53,0007.74,0005.95
2023-07-30 03:06:00,SystemResetWarning,0837.0,5.00,000.00,033.2,025.3,000.0,040.4,031.6,34.2,0000.0,0021.32,0007.71,0005.94
2023-07-30 03:07:00,SystemResetWarning,0837.0,5.00,000.00,032.9,025.3,000.0,040.4,031.4,34.5,0000.0,0021.90,0007.74,0005.93
2023-07-30 03:08:00,SystemResetWarning,0836.9,4.99,000.00,032.7,025.7,000.0,040.5,031.4,35.1,0000.0,0022.43,0007.76,0005.94
2023-07-30 03:09:00,SystemResetWarning,0837.0,5.02,000.00,032.7,026.2,000.0,040.5,031.5,35.2,0000.0,0022.80,0007.77,0005.93
2023-07-30 03:10:00,SystemResetWarning,0837.0,5.00,000.00,032.9,026.6,000.0,040.5,031.7,34.8,0000.0,0022.09,0007.70,0005.92
2023-07-30 03:11:00,SystemResetWarning,0836.9,4.98,000.00,033.0,027.0,000.0,040.5,031.9,34.5,0000.0,0021.74,0007.64,0005.91
2023-07-30 03:12:00,SystemResetWarning,0837.0,5.02,000.00,033.0,027.3,000.0,040.5,031.9,34.2,0000.0,0021.35,0007.64,0005.90
2023-07-30 03:13:00,SystemResetWarning,0837.0,5.00,000.00,033.0,027.6,000.0,040.5,032.0,34.1,0000.0,0020.42,0007.64,0005.90
2023-07-30 03:14:00,SystemResetWarning,0837.0,5.00,000.00,033.0,027.8,000.0,040.6,032.0,34.1,0000.0,0020.64,0007.65,0005.92
2023-07-30 03:15:00,SystemResetWarning,0837.1,5.00,000.00,033.0,028.0,000.0,040.6,032.0,34.1,0000.0,0021.22,0007.68,0005.95
2023-07-30 03:16:00,SystemResetWarning,0837.1,5.00,000.00,033.0,028.1,000.0,040.6,032.1,34.1,-001.2,0022.13,0007.65,0005.96
2023-07-30 03:17:00,SystemResetWarning,0837.1,4.99,000.00,033.0,027.1,000.0,040.5,032.0,34.0,-001.1,0022.22,0007.58,0005.95
2023-07-30 03:18:00,SystemResetWarning,0837.0,5.00,000.00,032.9,025.6,000.0,040.4,031.6,34.1,-000.2,0021.66,0007.52,0005.94
2023-07-30 03:19:00,SystemResetWarning,0837.0,5.01,000.00,032.8,025.1,000.0,040.3,031.5,34.2,-000.3,0020.69,0007.52,0005.93
2023-07-30 03:20:00,SystemResetWarning,0837.1,5.01,000.00,032.5,025.3,000.0,040.3,031.3,34.5,0000.0,0020.97,0007.49,0005.91
2023-07-30 03:21:00,SystemResetWarning,0837.1,5.00,000.00,032.3,025.7,000.0,040.3,031.3,34.9,0000.0,0020.94,0007.54,0005.90
2023-07-30 03:22:00,SystemResetWarning,0837.0,4.98,000.00,032.2,026.2,000.0,040.3,031.4,35.1,0000.0,0021.36,0007.61,0005.90
2023-07-30 03:23:00,SystemResetWarning,0837.2,5.02,000.00,032.3,026.6,000.0,040.3,031.6,34.8,-000.0,0022.63,0007.65,0005.89
2023-07-30 03:24:00,SystemResetWarning,0837.2,4.97,000.00,032.4,027.0,000.0,040.2,031.7,34.7,-000.7,0022.33,0007.64,0005.90
2023-07-30 03:25:00,SystemResetWarning,0837.2,5.02,000.00,032.4,027.3,000.0,040.2,031.8,34.6,-000.5,0022.04,0007.70,0005.89
2023-07-30 03:26:00,SystemResetWarning,0837.2,4.99,000.00,032.4,027.6,000.0,040.2,031.8,34.7,0000.0,0021.81,0007.72,0005.88
2023-07-30 03:27:00,SystemResetWarning,0837.2,5.00,000.00,032.4,027.8,000.0,040.2,031.8,34.8,0000.0,0021.14,0007.70,0005.88
2023-07-30 03:28:00,SystemResetWarning,0837.3,5.00,000.00,032.4,028.0,000.0,040.2,031.9,34.8,0000.0,0021.51,0007.68,0005.88
2023-07-30 03:29:00,SystemResetWarning,0837.2,4.99,000.00,032.4,028.2,000.0,040.3,031.9,34.7,0000.0,0021.68,0007.68,0005.87
2023-07-30 03:30:00,SystemResetWarning,0837.2,4.99,000.00,032.4,028.2,000.0,040.2,032.0,34.7,0000.0,0022.04,0007.69,0005.85
2023-07-30 03:31:00,SystemResetWarning,0837.2,5.00,000.00,032.4,026.9,000.0,040.1,031.8,34.8,0000.0,0021.52,0007.72,0005.85
2023-07-30 03:32:00,SystemResetWarning,0837.2,4.99,000.00,032.3,025.4,000.0,040.0,031.6,34.9,0000.0,0022.01,0007.65,0005.85
2023-07-30 03:33:00,SystemResetWarning,0837.1,5.02,000.00,032.2,025.0,000.0,039.9,031.4,35.2,0000.0,0021.89,0007.57,0005.84
2023-07-30 03:34:00,SystemResetWarning,0837.1,5.00,000.00,032.2,025.2,000.0,039.9,031.3,35.2,0000.0,0020.31,0007.53,0005.82
2023-07-30 03:35:00,SystemResetWarning,0837.2,5.01,000.00,032.3,025.7,000.0,039.9,031.4,34.7,0000.0,0019.94,0007.49,0005.79
2023-07-30 03:36:00,SystemResetWarning,0837.2,4.99,000.00,032.4,026.2,000.0,039.9,031.5,34.5,0000.0,0019.64,0007.45,0005.77
2023-07-30 03:37:00,SystemResetWarning,0837.2,5.00,000.00,032.4,026.6,000.0,039.9,031.6,34.4,0000.0,0019.84,0007.34,0005.75
2023-07-30 03:38:00,SystemResetWarning,0837.2,5.00,000.00,032.4,027.0,000.0,040.0,031.7,34.4,0000.0,0019.67,0007.37,0005.76
2023-07-30 03:39:00,SystemResetWarning,0837.2,5.01,000.00,032.4,027.3,000.0,040.0,031.7,34.3,0000.0,0020.08,0007.39,0005.78
2023-07-30 03:40:00,SystemResetWarning,0837.2,5.01,000.00,032.4,027.6,000.0,040.1,031.7,34.3,0000.0,0020.09,0007.42,0005.78
2023-07-30 03:41:00,SystemResetWarning,0837.2,5.00,000.00,032.4,027.8,000.0,040.1,031.8,34.3,0000.0,0019.62,0007.36,0005.79
2023-07-30 03:42:00,SystemResetWarning,0837.2,4.99,000.00,032.4,028.0,000.0,040.1,031.8,34.1,0000.0,0019.49,0007.34,0005.78
2023-07-30 03:43:00,SystemResetWarning,0837.2,4.99,000.00,032.3,028.1,000.0,040.2,031.9,34.2,0000.0,0019.01,0007.40,0005.78
2023-07-30 03:44:00,SystemResetWarning,0837.2,4.99,000.00,032.3,028.1,000.0,040.1,031.9,34.2,0000.0,0019.82,0007.42,0005.78
2023-07-30 03:45:00,SystemResetWarning,0837.2,4.99,000.00,032.3,026.7,000.0,040.0,031.6,34.3,0000.0,0020.21,0007.40,0005.79
2023-07-30 03:46:00,SystemResetWarning,0837.2,5.01,000.00,032.2,025.3,000.0,039.9,031.4,34.5,0000.0,0020.29,0007.41,0005.80
2023-07-30 03:47:00,SystemResetWarning,0837.2,5.01,000.00,032.1,025.1,000.0,039.8,031.3,34.6,0000.0,0020.11,0007.43,0005.82
2023-07-30 03:48:00,SystemResetWarning,0837.2,4.99,000.00,031.8,025.3,000.0,039.8,031.1,35.1,0000.0,0019.31,0007.44,0005.82
2023-07-30 03:49:00,SystemResetWarning,0837.2,5.02,000.00,031.8,025.8,000.0,039.8,031.2,35.2,0000.0,0018.99,0007.42,0005.82
2023-07-30 03:50:00,SystemResetWarning,0837.2,5.00,000.00,032.0,026.2,000.0,039.8,031.4,34.8,0000.0,0018.10,0007.41,0005.82
2023-07-30 03:51:00,SystemResetWarning,0837.2,4.98,000.00,032.2,026.6,000.0,039.8,031.6,34.5,0000.0,0017.72,0007.48,0005.86
2023-07-30 03:52:00,SystemResetWarning,0837.2,5.01,000.00,032.2,027.0,000.0,039.8,031.6,34.3,0000.0,0018.38,0007.55,0005.89
2023-07-30 03:53:00,SystemResetWarning,0837.2,5.00,000.00,032.3,027.3,000.0,039.9,031.7,34.3,0000.0,0018.16,0007.56,0005.90
2023-07-30 03:54:00,SystemResetWarning,0837.2,5.00,000.00,032.3,027.6,000.0,039.9,031.7,34.3,0000.0,0018.90,0007.54,0005.90
2023-07-30 03:55:00,SystemResetWarning,0837.3,5.00,000.00,032.3,027.8,000.0,039.9,031.7,34.3,0000.0,0018.15,0007.53,0005.90
2023-07-30 03:56:00,SystemResetWarning,0837.4,4.99,000.00,032.2,028.0,000.0,040.0,031.8,34.3,0000.0,0017.75,0007.52,0005.91
2023-07-30 03:57:00,SystemResetWarning,0837.4,4.99,000.00,032.2,028.2,000.0,040.0,031.8,34.3,0000.0,0017.66,0007.52,0005.92
2023-07-30 03:58:00,SystemResetWarning,0837.4,5.00,000.00,032.2,028.0,000.0,040.0,031.9,34.3,0000.0,0017.58,0007.52,0005.90
2023-07-30 03:59:00,SystemResetWarning,0837.4,5.01,000.00,032.2,026.4,000.0,039.9,031.6,34.3,0000.0,0017.56,0007.48,0005.88
